Location: Baumgarten
(49.0970°N, 12.7493°E)
Time: 10:48:54
(UTC+00:00)

Envisat - Visible Passes

Search period start: 24 September 2020 00:00
Search period end: 04 October 2020 00:00
Orbit: 764 x 766 km, 98.1° (Epoch: 23 September)

Date Brightness Start Highest point End Pass type
(mag) Time Alt. Az. Time Alt. Az. Time Alt. Az.
24 Sep 6.0 04:07:38 10° NE 04:11:15 19° E 04:14:52 10° SE visible
26 Sep 5.3 04:32:26 10° NNE 04:36:57 31° E 04:41:27 10° SSE visible
26 Sep 6.0 17:31:25 10° SW 17:35:11 21° W 17:39:00 10° NW visible
27 Sep 6.2 03:56:43 10° NE 03:59:46 16° E 04:02:46 10° SE visible
28 Sep 6.5 17:58:53 10° WSW 18:00:59 12° W 18:03:06 10° WNW visible
29 Sep 5.6 04:21:17 10° NE 04:25:30 25° E 04:29:41 10° SSE visible
29 Sep 5.7 17:19:32 10° SSW 17:23:42 25° W 17:27:55 10° NW visible
30 Sep 6.4 03:46:05 10° ENE 03:48:14 12° E 03:50:21 10° ESE visible
01 Oct 6.3 17:46:28 10° SW 17:49:27 16° W 17:52:28 10° NW visible
02 Oct 6.0 04:10:12 10° NE 04:14:01 21° E 04:17:48 10° SE visible
